Flag for Poland Weather past 2 weeks in Warsaw, Poland

Now
48 °F

Light rain. Passing clouds.


Feels Like: 43 °F
Forecast: 41 / 56 °F
Wind: 13 mph from West

Location: Warsaw Okecie Airport

Current Time: Sep 23, 2014 at 6:23:08 AM

Latest Report: Sep 23, 2014 at 6:00 AM


Visibility: N/A

Pressure: 29.68 "Hg

Humidity: 94%

Dew point: 46 °F

Location of WarsawLocation

Historic Weather in Warsaw — Graph

°F

Warsaw temperature yesterday

Maximum temperature yesterday: 61 °F (at 12:00 AM)
Minimum temperature yesterday: 50 °F (at 10:30 PM)
Average temperature yesterday: 57 °F

Past Weeks' High & Low Weather Summary

 TemperatureHumidityPressure
High81 °F (Sep 13, 3:30 PM)100% (Sep 8, 8:30 PM)30.24 "Hg (Sep 8, 8:30 PM)
Low46 °F (Sep 23, 3:00 AM)36% (Sep 18, 3:00 PM)29.62 "Hg (Sep 22, 5:00 AM)
Average62 °F76%30.03 "Hg
* Reported Sep 8 5:00 AM — Sep 23 5:30 AM, Warsaw, Weather by CustomWeather, © 2014

Note: Actual official high and low records may vary slightly from our data, if they occured in-between our weather recording intervals... More about our weather records

Advertising

Warsaw weather history for previous 24 hours

 ConditionsComfort  
Time TempWeatherWind HumidityBarometerVisibility
5:30 AM
Sep 23
48 °FPassing clouds.12 mph94%29.68 "HgN/A
5:00 AM48 °FPassing clouds.13 mph94%29.68 "HgN/A
4:30 AM48 °FPassing clouds.12 mph94%29.71 "HgN/A
4:00 AM46 °FPassing clouds.9 mph93%29.71 "HgN/A
3:30 AM46 °FPassing clouds.10 mph93%29.71 "HgN/A
3:00 AM46 °FClear.12 mph93%29.71 "Hg10 mi
2:30 AM48 °FClear.10 mph87%29.71 "Hg10 mi
2:00 AM48 °FClear.12 mph87%29.71 "Hg10 mi
1:30 AM48 °FClear.10 mph87%29.71 "Hg10 mi
1:00 AM48 °FClear.9 mph87%29.71 "Hg10 mi
12:30 AM48 °FClear.10 mph87%29.71 "Hg10 mi
12:00 AM50 °FClear.9 mph82%29.71 "Hg10 mi
11:30 PM
Sep 22
50 °FClear.7 mph88%29.71 "Hg10 mi
11:00 PM50 °FClear.8 mph88%29.71 "Hg10 mi
10:30 PM50 °FClear.7 mph88%29.71 "Hg10 mi
10:00 PM52 °FClear.5 mph88%29.71 "Hg10 mi
9:30 PM52 °FClear.6 mph88%29.71 "Hg10 mi
9:00 PM54 °FClear.8 mph82%29.71 "Hg10 mi
8:30 PM54 °FClear.9 mph82%29.71 "Hg10 mi
8:00 PM54 °FClear.10 mph82%29.71 "Hg10 mi
7:30 PM54 °FSunny.9 mph77%29.71 "Hg10 mi
7:00 PM54 °FSunny.10 mph77%29.68 "Hg10 mi
6:30 PM55 °FPassing clouds.9 mph77%29.68 "HgN/A
6:00 PM55 °FPassing clouds.10 mph77%29.68 "HgN/A
5:30 PM57 °FPassing clouds.13 mph82%29.68 "HgN/A
5:00 PM59 °FSprinkles. Scattered clouds.12 mph68%29.68 "HgN/A
4:30 PM61 °FPassing clouds.13 mph63%29.65 "HgN/A
4:00 PM59 °FPassing clouds.13 mph63%29.65 "HgN/A
3:30 PM59 °FScattered clouds.15 mph68%29.68 "HgN/A
3:00 PM61 °FScattered clouds.15 mph63%29.65 "HgN/A
2:30 PM59 °FScattered clouds.12 mph72%29.65 "HgN/A
2:00 PM59 °FScattered clouds.15 mph72%29.68 "HgN/A
1:30 PM59 °FScattered clouds.15 mph72%29.68 "HgN/A
1:00 PM57 °FBroken clouds.18 mph77%29.68 "HgN/A
12:30 PM57 °FBroken clouds.16 mph82%29.68 "HgN/A
12:00 PM55 °FBroken clouds.14 mph88%29.68 "HgN/A
11:30 AM55 °FBroken clouds.13 mph88%29.68 "HgN/A
11:00 AM55 °FBroken clouds.10 mph94%29.65 "HgN/A
10:30 AM55 °FSprinkles. Broken clouds.10 mph94%29.68 "Hg5 mi
10:00 AM55 °FSprinkles. Broken clouds.10 mph94%29.68 "Hg5 mi
9:30 AM55 °FSprinkles. Broken clouds.10 mph94%29.68 "Hg5 mi
9:00 AM55 °FSprinkles. Scattered clouds.12 mph94%29.65 "HgN/A
8:30 AM55 °FScattered clouds.12 mph94%29.65 "HgN/A
8:00 AM55 °FBroken clouds.13 mph94%29.65 "HgN/A
7:30 AM55 °FSprinkles. Broken clouds.13 mph94%29.65 "Hg5 mi
7:00 AM57 °FSprinkles. Passing clouds.12 mph94%29.65 "Hg4 mi
6:30 AM57 °FSprinkles. Partly cloudy.15 mph94%29.62 "Hg4 mi
6:00 AM57 °FPassing clouds.10 mph94%29.62 "Hg5 mi
Weather by CustomWeather, © 2014

See weather overviewHow to use our weather pages